| time (UTC) | temp F | wind direction | speed knots | gust knots | rain 1hr in | rain 24hr in | rain mn in | humidity % | barometer mb |
| 20260505051552 | 43 | 303 | 2.6 | 3.5 | 0.00 | 0.00 | 0.00 | 54 | 1007.4 |
| 20260505041527 | 44 | 330 | 2.6 | 5.2 | 0.00 | 0.00 | 0.00 | 53 | 1007.6 |
| 20260505040024 | 45 | 333 | 4.3 | 6.1 | 0.00 | 0.00 | 0.00 | 52 | 1007.5 |
| 20260505034517 | 45 | 335 | 3.5 | 6.1 | 0.00 | 0.00 | 0.00 | 52 | 1007.6 |
| 20260505033018 | 46 | 336 | 4.3 | 7.0 | 0.00 | 0.00 | 0.00 | 52 | 1007.6 |
| 20260505031517 | 46 | 338 | 6.1 | 8.7 | 0.00 | 0.00 | 0.00 | 51 | 1007.4 |
| 20260505030012 | 47 | 344 | 8.7 | 12.2 | 0.00 | 0.00 | 0.00 | 50 | 1007.3 |
| 20260505024511 | 48 | 335 | 10.4 | 14.8 | 0.00 | 0.00 | 0.00 | 50 | 1007.2 |
| 20260505023005 | 48 | 339 | 10.4 | 15.6 | 0.00 | 0.00 | 0.00 | 50 | 1006.8 |
| 20260505021503 | 49 | 322 | 12.2 | 15.6 | 0.00 | 0.00 | 0.00 | 49 | 1006.4 |
| 20260505020105 | 50 | 331 | 10.4 | 15.6 | 0.00 | 0.00 | 0.00 | 47 | 1006.1 |
| 20260505014556 | 50 | 328 | 9.6 | 14.8 | 0.00 | 0.00 | 0.00 | 46 | 1005.7 |
| 20260505013100 | 51 | 332 | 9.6 | 16.5 | 0.00 | 0.00 | 0.00 | 46 | 1005.4 |
| 20260505011551 | 51 | 340 | 12.2 | 18.2 | 0.00 | 0.00 | 0.00 | 45 | 1005.1 |
| 20260505004544 | 52 | 324 | 10.4 | 15.6 | 0.00 | 0.00 | 0.00 | 47 | 1004.7 |
| 20260505003042 | 52 | 338 | 13.0 | 17.4 | 0.00 | 0.00 | 0.00 | 47 | 1004.4 |
| 20260505001540 | 53 | 325 | 12.2 | 17.4 | 0.00 | 0.00 | 0.00 | 47 | 1004.2 |
| 20260505000044 | 54 | 325 | 11.3 | 18.2 | 0.00 | 0.00 | 0.00 | 46 | 1004.0 |
| 20260504234536 | 56 | 318 | 10.4 | 17.4 | 0.00 | 0.00 | 0.00 | 45 | 1003.8 |
| 20260504233038 | 56 | 320 | 10.4 | 20.9 | 0.00 | 0.00 | 0.00 | 44 | 1003.5 |
| 20260504231541 | 57 | 329 | 11.3 | 16.5 | 0.00 | 0.00 | 0.00 | 43 | 1003.4 |
| 20260504230039 | 58 | 320 | 9.6 | 15.6 | 0.00 | 0.00 | 0.00 | 42 | 1003.3 |
| 20260504224533 | 58 | 329 | 13.0 | 19.1 | 0.00 | 0.00 | 0.00 | 41 | 1003.0 |
| 20260504223033 | 59 | 305 | 9.6 | 13.9 | 0.00 | 0.00 | 0.00 | 41 | 1002.7 |
| 20260504221533 | 58 | 293 | 8.7 | 17.4 | 0.00 | 0.00 | 0.00 | 41 | 1002.5 |
| 20260504220034 | 60 | 337 | 12.2 | 20.9 | 0.00 | 0.00 | 0.00 | 37 | 1002.2 |
| 20260504214531 | 61 | 333 | 12.2 | 17.4 | 0.00 | 0.00 | 0.00 | 36 | 1002.1 |
| 20260504213031 | 61 | 315 | 12.2 | 14.8 | 0.00 | 0.00 | 0.00 | 36 | 1001.8 |
| 20260504211530 | 61 | 296 | 12.2 | 25.2 | 0.00 | 0.00 | 0.00 | 36 | 1001.9 |
| 20260504210034 | 60 | 330 | 15.6 | 21.7 | 0.00 | 0.00 | 0.00 | 36 | 1001.9 |
| 20260504204532 | 61 | 314 | 12.2 | 18.2 | 0.00 | 0.00 | 0.00 | 35 | 1001.7 |
| 20260504203043 | 61 | 323 | 11.3 | 18.2 | 0.00 | 0.00 | 0.00 | 31 | 1001.7 |
| 20260504201528 | 62 | 325 | 10.4 | 18.2 | 0.00 | 0.00 | 0.00 | 33 | 1001.7 |
| 20260504200125 | 63 | 316 | 11.3 | 19.1 | 0.00 | 0.00 | 0.00 | 35 | 1001.4 |
| 20260504194525 | 61 | 307 | 8.7 | 14.8 | 0.00 | 0.00 | 0.00 | 39 | 1001.5 |
| 20260504193024 | 62 | 333 | 9.6 | 17.4 | 0.00 | 0.00 | 0.00 | 42 | 1001.5 |
| 20260504191526 | 62 | 322 | 8.7 | 13.9 | 0.00 | 0.00 | 0.00 | 40 | 1001.4 |
| 20260504190023 | 62 | 328 | 10.4 | 16.5 | 0.00 | 0.00 | 0.00 | 38 | 1001.3 |
| 20260504184522 | 64 | 316 | 11.3 | 20.0 | 0.00 | 0.00 | 0.00 | 36 | 1001.3 |
| 20260504183029 | 64 | 330 | 13.9 | 18.2 | 0.00 | 0.00 | 0.00 | 35 | 1000.9 |
| 20260504181520 | 64 | 296 | 10.4 | 16.5 | 0.00 | 0.00 | 0.00 | 37 | 1000.8 |
| 20260504180020 | 63 | 309 | 10.4 | 15.6 | 0.00 | 0.00 | 0.00 | 36 | 1000.6 |
| 20260504174518 | 63 | 303 | 7.8 | 14.8 | 0.00 | 0.00 | 0.00 | 40 | 1000.5 |
| 20260504173018 | 63 | 339 | 9.6 | 13.0 | 0.00 | 0.00 | 0.00 | 41 | 1000.4 |
| 20260504171518 | 62 | 327 | 8.7 | 14.8 | 0.00 | 0.00 | 0.00 | 42 | 1000.4 |
| 20260504081522 | 52 | 222 | 5.2 | 9.6 | 0.00 | 0.00 | 0.00 | 56 | 1000.6 |
| 20260504060120 | 55 | 246 | 7.0 | 9.6 | 0.00 | 0.00 | 0.00 | 50 | 1002.6 |